<?xml version="1.0"?>
<gpx xmlns="http://www.topografix.com/GPX/1/1" xmlns:xsi="http://www.w3.org/2001/XMLSchema-instance" version="1.1" creator="GPX RubyGem 1.0.0 -- http://dougfales.github.io/gpx/" xsi:schemaLocation="http://www.topografix.com/GPX/1/1 http://www.topografix.com/GPX/1/1/gpx.xsd">
  <metadata>
    <name/>
    <time>2026-05-10T17:45:34+00:00</time>
    <bound minlat="90.0" minlon="180.0" maxlat="-90.0" maxlon="-180.0"/>
  </metadata>
  <trk>
    <name/>
    <trkseg>
      <trkpt lat="51.980364" lon="8.482114">
        <time>1970-01-01T00:00:00+00:00</time>
        <ele>106.0</ele>
      </trkpt>
      <trkpt lat="51.980566" lon="8.481711">
        <time>1970-01-01T00:00:00+00:00</time>
        <ele>106.0</ele>
      </trkpt>
      <trkpt lat="51.980592" lon="8.481609">
        <time>1970-01-01T00:00:00+00:00</time>
        <ele>106.0</ele>
      </trkpt>
      <trkpt lat="51.98065" lon="8.481496">
        <time>1970-01-01T00:00:00+00:00</time>
        <ele>107.0</ele>
      </trkpt>
      <trkpt lat="51.980884" lon="8.481051">
        <time>1970-01-01T00:00:00+00:00</time>
        <ele>108.0</ele>
      </trkpt>
      <trkpt lat="51.980456" lon="8.480476">
        <time>1970-01-01T00:00:00+00:00</time>
        <ele>109.0</ele>
      </trkpt>
      <trkpt lat="51.980159" lon="8.480116">
        <time>1970-01-01T00:00:00+00:00</time>
        <ele>107.0</ele>
      </trkpt>
      <trkpt lat="51.979937" lon="8.479971">
        <time>1970-01-01T00:00:00+00:00</time>
        <ele>106.0</ele>
      </trkpt>
      <trkpt lat="51.979922" lon="8.480107">
        <time>1970-01-01T00:00:00+00:00</time>
        <ele>106.0</ele>
      </trkpt>
      <trkpt lat="51.97987" lon="8.480171">
        <time>1970-01-01T00:00:00+00:00</time>
        <ele>106.0</ele>
      </trkpt>
      <trkpt lat="51.979848" lon="8.480264">
        <time>1970-01-01T00:00:00+00:00</time>
        <ele>106.0</ele>
      </trkpt>
      <trkpt lat="51.979793" lon="8.481026">
        <time>1970-01-01T00:00:00+00:00</time>
        <ele>107.0</ele>
      </trkpt>
      <trkpt lat="51.979768" lon="8.481604">
        <time>1970-01-01T00:00:00+00:00</time>
        <ele>109.0</ele>
      </trkpt>
      <trkpt lat="51.979737" lon="8.482547">
        <time>1970-01-01T00:00:00+00:00</time>
        <ele>109.0</ele>
      </trkpt>
      <trkpt lat="51.979723" lon="8.483775">
        <time>1970-01-01T00:00:00+00:00</time>
        <ele>110.0</ele>
      </trkpt>
      <trkpt lat="51.979741" lon="8.484096">
        <time>1970-01-01T00:00:00+00:00</time>
        <ele>110.0</ele>
      </trkpt>
      <trkpt lat="51.97979" lon="8.484201">
        <time>1970-01-01T00:00:00+00:00</time>
        <ele>109.0</ele>
      </trkpt>
      <trkpt lat="51.97979" lon="8.484714">
        <time>1970-01-01T00:00:00+00:00</time>
        <ele>108.0</ele>
      </trkpt>
      <trkpt lat="51.97985" lon="8.484817">
        <time>1970-01-01T00:00:00+00:00</time>
        <ele>108.0</ele>
      </trkpt>
      <trkpt lat="51.979804" lon="8.484916">
        <time>1970-01-01T00:00:00+00:00</time>
        <ele>109.0</ele>
      </trkpt>
      <trkpt lat="51.979772" lon="8.485178">
        <time>1970-01-01T00:00:00+00:00</time>
        <ele>111.0</ele>
      </trkpt>
      <trkpt lat="51.97988" lon="8.485173">
        <time>1970-01-01T00:00:00+00:00</time>
        <ele>110.0</ele>
      </trkpt>
      <trkpt lat="51.97988" lon="8.485173">
        <time>1970-01-01T00:00:00+00:00</time>
        <ele>110.0</ele>
      </trkpt>
      <trkpt lat="51.979772" lon="8.485178">
        <time>1970-01-01T00:00:00+00:00</time>
        <ele>111.0</ele>
      </trkpt>
      <trkpt lat="51.979804" lon="8.484916">
        <time>1970-01-01T00:00:00+00:00</time>
        <ele>109.0</ele>
      </trkpt>
      <trkpt lat="51.97985" lon="8.484817">
        <time>1970-01-01T00:00:00+00:00</time>
        <ele>108.0</ele>
      </trkpt>
      <trkpt lat="51.97979" lon="8.484714">
        <time>1970-01-01T00:00:00+00:00</time>
        <ele>108.0</ele>
      </trkpt>
      <trkpt lat="51.97979" lon="8.484201">
        <time>1970-01-01T00:00:00+00:00</time>
        <ele>109.0</ele>
      </trkpt>
      <trkpt lat="51.979741" lon="8.484096">
        <time>1970-01-01T00:00:00+00:00</time>
        <ele>110.0</ele>
      </trkpt>
      <trkpt lat="51.979723" lon="8.483775">
        <time>1970-01-01T00:00:00+00:00</time>
        <ele>110.0</ele>
      </trkpt>
      <trkpt lat="51.979737" lon="8.482547">
        <time>1970-01-01T00:00:00+00:00</time>
        <ele>109.0</ele>
      </trkpt>
      <trkpt lat="51.979768" lon="8.481604">
        <time>1970-01-01T00:00:00+00:00</time>
        <ele>109.0</ele>
      </trkpt>
      <trkpt lat="51.979793" lon="8.481026">
        <time>1970-01-01T00:00:00+00:00</time>
        <ele>107.0</ele>
      </trkpt>
      <trkpt lat="51.979848" lon="8.480264">
        <time>1970-01-01T00:00:00+00:00</time>
        <ele>106.0</ele>
      </trkpt>
      <trkpt lat="51.97987" lon="8.480171">
        <time>1970-01-01T00:00:00+00:00</time>
        <ele>106.0</ele>
      </trkpt>
      <trkpt lat="51.979922" lon="8.480107">
        <time>1970-01-01T00:00:00+00:00</time>
        <ele>106.0</ele>
      </trkpt>
      <trkpt lat="51.979937" lon="8.479971">
        <time>1970-01-01T00:00:00+00:00</time>
        <ele>106.0</ele>
      </trkpt>
      <trkpt lat="51.980159" lon="8.480116">
        <time>1970-01-01T00:00:00+00:00</time>
        <ele>107.0</ele>
      </trkpt>
      <trkpt lat="51.980456" lon="8.480476">
        <time>1970-01-01T00:00:00+00:00</time>
        <ele>109.0</ele>
      </trkpt>
      <trkpt lat="51.980884" lon="8.481051">
        <time>1970-01-01T00:00:00+00:00</time>
        <ele>108.0</ele>
      </trkpt>
      <trkpt lat="51.98065" lon="8.481496">
        <time>1970-01-01T00:00:00+00:00</time>
        <ele>107.0</ele>
      </trkpt>
      <trkpt lat="51.980592" lon="8.481609">
        <time>1970-01-01T00:00:00+00:00</time>
        <ele>106.0</ele>
      </trkpt>
      <trkpt lat="51.980566" lon="8.481711">
        <time>1970-01-01T00:00:00+00:00</time>
        <ele>106.0</ele>
      </trkpt>
      <trkpt lat="51.980364" lon="8.482114">
        <time>1970-01-01T00:00:00+00:00</time>
        <ele>106.0</ele>
      </trkpt>
    </trkseg>
  </trk>
</gpx>
